Back to catalog

STARLINK-32141

AliveCommunicationsVLEO
NORAD 60290·PAYLOAD·🇺🇸 United States

Launched Jul 28, 2024 from Cape Canaveral Space Force Station

Loading…

Next Passes (next 24 hours)

TLE

FreshSource: CelesTrak SupGP

Epoch: Sep 14, 2026, 14:45 UTC

1 60290C 24132N   26257.61506944 -.00031294  00000+0 -92484-3 0  2573
2 60290  53.1569 253.1754 0001310  87.3350 139.2380 15.34397276    10

Track STARLINK-32141 in real time with AllMySat

Download on the App Store